Aiken, SC (29803)

9:12 AM EST on February 10, 2016 (GMT -0500)
Accent Solutions (South Meadows) | | Change Station
CLOSE
Current Station
Personal Weather Station
Location: Aiken, SC
Elevation: 459 ft
Nearby Weather Stations
Active Advisory: Lake Wind Advisory

Elev 459 ft 33.49 °N, 81.69 °W | Updated 11 seconds ago

Overcast
Overcast
29.3 °F
Feels Like 29 °F
N
0.0
Wind Variable Wind from SW
Gusts 10.0 mph

Today
High -- | Low -- °F
--% Chance of Precip.
Yesterday
High -- | Low -- °F
Precip. -- in
Pressure 30.06 in
Visibility -9999.0 miles
Clouds Overcast 3500 ft
Windchill 29 °F
Dew Point 17 °F
Humidity 59%
Rainfall 0.00 in
Snow Depth Not available.
7:16 AM 6:06 PM
Waxing Crescent, 5% visible
METAR KAIK 101415Z AUTO 26013G18KT OVC035 M01/M10 A3006 RMK AO2 PWINO
Pressure 30.06 in
Visibility -9999.0 miles
Clouds Overcast 3500 ft
Windchill 29 °F
Dew Point 17 °F
Humidity 59%
Rainfall 0.00 in
Snow Depth Not available.
7:16 AM 6:06 PM
Waxing Crescent, 5% visible
METAR KAIK 101415Z AUTO 26013G18KT OVC035 M01/M10 A3006 RMK AO2 PWINO

10-Day Weather Forecast

Almanac

Astronomy

Feb. 10, 2016 Rise Set
Actual Time
Civil Twilight
Nautical Twilight
Astronomical Twilight
Moon
Length of Visible Light
Length of Day
Tomorrow will be .
, % of the Moon is Illuminated

Today's Extremes

State Highs State Lows

Community

WunderPhotos

Upload Photos

1,891,850 photos uploaded!

WunderBlog® & News

Nearby

Air Quality

  Air Quality AQ Index Pollutant
Not available.

Snow Depth

Station Depth Elevation

Earthquake Activity

City Distance Mag. Time & Date
Minimum magnitude displayed is 2.5.

Coastal Water Temperatures

Place Temperature

Stations

Nearby Weather Stations

Station Location Temp. Windchill Dew Point Humidity Wind Precip. Elev Updated Type
                   

Watches & Warnings

Lake Wind Advisory
Issued: 3:47 AM EST Feb. 10, 2016 – National Weather Service

... Lake Wind Advisory remains in effect until 11 PM EST this
evening...

* timing... through this evening.

* Winds... west 20 to 30 knots.

* Impacts... strong winds and rough chop will create hazardous
conditions for small craft and personal watercraft.

Precautionary/preparedness actions...

A lake Wind Advisory indicates that winds will cause rough chop
on area lakes. Small boats will be especially prone to capsizing.